Time,TemperatureF,DewpointF,PressureIn,WindDirection,WindDirectionDegrees,WindSpeedMPH,WindSpeedGustMPH,Humidity,HourlyPrecipIn,Conditions,Clouds,dailyrainin,SoftwareType,DateUTC
2013-05-15 00:00:00,35.0,30.4,29.65,SW,226,4.0,4.0,83,0.00,,,0.01,Wunderground v.1.15,2013-05-15 08:00:00,
2013-05-15 00:06:00,34.9,30.3,29.65,SSW,199,4.0,7.0,83,0.00,,,0.01,Wunderground v.1.15,2013-05-15 08:06:00,
2013-05-15 00:12:00,34.8,30.5,29.65,SW,215,4.0,7.0,84,0.00,,,0.01,Wunderground v.1.15,2013-05-15 08:12:00,
2013-05-15 00:17:00,34.9,30.6,29.65,South,179,4.0,7.0,84,0.00,,,0.01,Wunderground v.1.15,2013-05-15 08:17:00,
2013-05-15 00:22:00,34.9,30.6,29.66,SW,214,4.0,7.0,84,0.00,,,0.01,Wunderground v.1.15,2013-05-15 08:22:00,
2013-05-15 00:28:00,34.9,30.3,29.66,SSW,208,3.0,7.0,83,0.00,,,0.01,Wunderground v.1.15,2013-05-15 08:28:00,
2013-05-15 00:33:00,34.8,30.5,29.66,SSW,201,3.0,7.0,84,0.00,,,0.01,Wunderground v.1.15,2013-05-15 08:33:00,
2013-05-15 00:39:00,34.8,30.2,29.66,SW,226,2.0,2.0,83,0.00,,,0.01,Wunderground v.1.15,2013-05-15 08:39:00,
2013-05-15 00:44:00,34.7,30.4,29.66,SSW,192,2.0,7.0,84,0.00,,,0.01,Wunderground v.1.15,2013-05-15 08:44:00,
2013-05-15 00:49:00,34.8,30.2,29.66,South,191,3.0,7.0,83,0.00,,,0.01,Wunderground v.1.15,2013-05-15 08:49:00,
2013-05-15 00:56:00,34.7,29.8,29.66,South,191,2.0,7.0,82,0.00,,,0.01,Wunderground v.1.15,2013-05-15 08:56:00,
2013-05-15 01:01:00,34.7,30.1,29.66,South,170,1.0,6.0,83,0.00,,,0.01,Wunderground v.1.15,2013-05-15 09:01:00,
2013-05-15 01:06:00,34.5,29.9,29.66,South,178,0.0,6.0,83,0.00,,,0.01,Wunderground v.1.15,2013-05-15 09:06:00,
2013-05-15 01:11:00,34.4,29.8,29.66,SSE,168,1.0,6.0,83,0.00,,,0.01,Wunderground v.1.15,2013-05-15 09:11:00,
2013-05-15 01:16:00,34.5,29.9,29.66,South,185,1.0,6.0,83,0.00,,,0.01,Wunderground v.1.15,2013-05-15 09:16:00,
2013-05-15 01:21:00,34.4,29.5,29.66,South,185,0.0,6.0,82,0.00,,,0.01,Wunderground v.1.15,2013-05-15 09:21:00,
2013-05-15 01:27:00,34.5,29.9,29.66,SSE,168,1.0,6.0,83,0.00,,,0.01,Wunderground v.1.15,2013-05-15 09:27:00,
2013-05-15 01:32:00,34.5,29.6,29.66,SSE,168,1.0,6.0,82,0.00,,,0.01,Wunderground v.1.15,2013-05-15 09:32:00,
2013-05-15 01:38:00,34.5,29.3,29.66,SSE,168,0.0,6.0,81,0.00,,,0.01,Wunderground v.1.15,2013-05-15 09:38:00,
2013-05-15 01:43:00,34.6,29.1,29.67,SSE,168,1.0,6.0,80,0.00,,,0.01,Wunderground v.1.15,2013-05-15 09:43:00,
2013-05-15 01:48:00,34.5,28.7,29.67,SSE,167,1.0,6.0,79,0.00,,,0.01,Wunderground v.1.15,2013-05-15 09:48:00,
2013-05-15 01:54:00,34.4,28.6,29.67,SSE,168,0.0,6.0,79,0.00,,,0.01,Wunderground v.1.15,2013-05-15 09:54:00,
2013-05-15 02:00:00,34.3,28.5,29.67,SSE,168,1.0,2.0,79,0.00,,,0.01,Wunderground v.1.15,2013-05-15 10:00:00,
2013-05-15 02:05:00,34.3,28.2,29.67,SSW,206,2.0,2.0,78,0.00,,,0.01,Wunderground v.1.15,2013-05-15 10:05:00,
2013-05-15 02:10:00,34.3,28.2,29.67,SSW,211,1.0,2.0,78,0.00,,,0.01,Wunderground v.1.15,2013-05-15 10:10:00,
2013-05-15 02:15:00,34.2,28.1,29.67,SSW,211,0.0,2.0,78,0.00,,,0.01,Wunderground v.1.15,2013-05-15 10:15:00,
2013-05-15 02:20:00,34.2,28.1,29.67,SSW,211,0.0,2.0,78,0.00,,,0.01,Wunderground v.1.15,2013-05-15 10:20:00,
2013-05-15 02:25:00,34.1,28.0,29.67,SSW,210,0.0,2.0,78,0.00,,,0.01,Wunderground v.1.15,2013-05-15 10:25:00,
2013-05-15 02:31:00,34.0,27.9,29.67,SSW,210,0.0,2.0,78,0.00,,,0.01,Wunderground v.1.15,2013-05-15 10:31:00,
2013-05-15 02:37:00,33.9,27.4,29.67,ESE,116,0.0,2.0,77,0.00,,,0.01,Wunderground v.1.15,2013-05-15 10:37:00,
2013-05-15 02:42:00,33.9,27.4,29.67,ESE,115,0.0,2.0,77,0.00,,,0.01,Wunderground v.1.15,2013-05-15 10:42:00,
2013-05-15 02:48:00,33.8,27.4,29.67,ESE,104,0.0,2.0,77,0.00,,,0.01,Wunderground v.1.15,2013-05-15 10:48:00,
2013-05-15 02:53:00,33.8,27.0,29.67,ESE,104,0.0,2.0,76,0.00,,,0.01,Wunderground v.1.15,2013-05-15 10:53:00,
2013-05-15 02:58:00,34.0,26.6,29.68,ESE,104,0.0,2.0,74,0.00,,,0.01,Wunderground v.1.15,2013-05-15 10:58:00,
2013-05-15 03:03:00,34.0,26.3,29.68,SE,145,0.0,2.0,73,0.00,,,0.01,Wunderground v.1.15,2013-05-15 11:03:00,
2013-05-15 03:09:00,34.1,26.3,29.68,SSE,160,0.0,2.0,73,0.00,,,0.01,Wunderground v.1.15,2013-05-15 11:09:00,
2013-05-15 03:15:00,34.2,26.4,29.68,SE,128,1.0,2.0,73,0.00,,,0.01,Wunderground v.1.15,2013-05-15 11:15:00,
2013-05-15 03:22:00,34.2,26.4,29.68,East,96,0.0,2.0,73,0.00,,,0.01,Wunderground v.1.15,2013-05-15 11:22:00,
2013-05-15 03:28:00,34.0,26.3,29.68,East,91,0.0,2.0,73,0.00,,,0.01,Wunderground v.1.15,2013-05-15 11:28:00,
2013-05-15 03:34:00,33.9,26.8,29.68,East,90,0.0,2.0,75,0.00,,,0.01,Wunderground v.1.15,2013-05-15 11:34:00,
2013-05-15 03:39:00,33.7,26.6,29.68,East,91,0.0,2.0,75,0.00,,,0.01,Wunderground v.1.15,2013-05-15 11:39:00,
2013-05-15 03:45:00,33.5,25.8,29.68,ESE,112,0.0,2.0,73,0.00,,,0.01,Wunderground v.1.15,2013-05-15 11:45:00,
2013-05-15 03:51:00,33.5,25.8,29.68,WSW,255,0.0,2.0,73,0.00,,,0.01,Wunderground v.1.15,2013-05-15 11:51:00,
2013-05-15 03:57:00,33.4,25.3,29.68,WSW,254,0.0,2.0,72,0.00,,,0.01,Wunderground v.1.15,2013-05-15 11:57:00,
2013-05-15 04:03:00,33.6,25.9,29.68,SSE,154,0.0,2.0,73,0.00,,,0.01,Wunderground v.1.15,2013-05-15 12:03:00,
2013-05-15 04:08:00,33.8,25.7,29.68,South,189,0.0,2.0,72,0.00,,,0.01,Wunderground v.1.15,2013-05-15 12:08:00,
2013-05-15 04:16:00,34.1,26.0,29.68,South,189,0.0,2.0,72,0.00,,,0.01,Wunderground v.1.15,2013-05-15 12:16:00,
2013-05-15 04:21:00,34.0,25.6,29.68,South,189,0.0,2.0,71,0.00,,,0.01,Wunderground v.1.15,2013-05-15 12:21:00,
2013-05-15 04:26:00,34.1,25.7,29.68,South,189,0.0,2.0,71,0.00,,,0.01,Wunderground v.1.15,2013-05-15 12:26:00,
2013-05-15 04:32:00,33.9,25.8,29.68,SSE,155,0.0,2.0,72,0.00,,,0.01,Wunderground v.1.15,2013-05-15 12:32:00,
2013-05-15 04:38:00,33.6,25.9,29.68,SSE,154,0.0,2.0,73,0.00,,,0.01,Wunderground v.1.15,2013-05-15 12:38:00,
2013-05-15 04:43:00,33.5,26.1,29.68,SSE,154,0.0,2.0,74,0.00,,,0.01,Wunderground v.1.15,2013-05-15 12:43:00,
2013-05-15 04:49:00,33.3,25.9,29.68,SSE,155,0.0,2.0,74,0.00,,,0.01,Wunderground v.1.15,2013-05-15 12:49:00,
2013-05-15 04:54:00,33.2,25.8,29.68,SSE,154,0.0,2.0,74,0.00,,,0.01,Wunderground v.1.15,2013-05-15 12:54:00,
2013-05-15 05:00:00,33.1,25.7,29.68,SSE,155,0.0,0.0,74,0.00,,,0.01,Wunderground v.1.15,2013-05-15 13:00:00,
2013-05-15 05:06:00,33.0,25.6,29.68,SSE,155,0.0,0.0,74,0.00,,,0.01,Wunderground v.1.15,2013-05-15 13:06:00,
2013-05-15 05:11:00,33.0,25.6,29.68,SE,144,0.0,0.0,74,0.00,,,0.01,Wunderground v.1.15,2013-05-15 13:11:00,
2013-05-15 05:18:00,33.2,25.8,29.68,SSW,201,0.0,1.0,74,0.00,,,0.01,Wunderground v.1.15,2013-05-15 13:18:00,
2013-05-15 05:23:00,33.3,25.9,29.68,South,178,0.0,0.0,74,0.00,,,0.01,Wunderground v.1.15,2013-05-15 13:23:00,
2013-05-15 05:29:00,33.5,25.8,29.68,South,174,1.0,1.0,73,0.00,,,0.01,Wunderground v.1.15,2013-05-15 13:29:00,
2013-05-15 05:35:00,33.4,25.7,29.69,SSW,198,0.0,1.0,73,0.00,,,0.01,Wunderground v.1.15,2013-05-15 13:35:00,
2013-05-15 05:40:00,33.5,25.8,29.69,SSW,199,0.0,0.0,73,0.00,,,0.01,Wunderground v.1.15,2013-05-15 13:40:00,
2013-05-15 05:45:00,33.6,25.9,29.69,SSW,199,0.0,0.0,73,0.00,,,0.01,Wunderground v.1.15,2013-05-15 13:45:00,
2013-05-15 05:50:00,33.7,25.6,29.69,SE,138,0.0,0.0,72,0.00,,,0.01,Wunderground v.1.15,2013-05-15 13:50:00,
2013-05-15 05:56:00,33.8,25.7,29.69,SSE,162,0.0,1.0,72,0.00,,,0.01,Wunderground v.1.15,2013-05-15 13:56:00,
2013-05-15 06:01:00,33.8,25.7,29.69,SSE,162,0.0,2.0,72,0.00,,,0.01,Wunderground v.1.15,2013-05-15 14:01:00,
2013-05-15 06:07:00,33.8,25.7,29.69,SSE,161,0.0,2.0,72,0.00,,,0.01,Wunderground v.1.15,2013-05-15 14:07:00,
2013-05-15 06:12:00,33.7,25.6,29.69,SSE,162,0.0,2.0,72,0.00,,,0.01,Wunderground v.1.15,2013-05-15 14:12:00,
2013-05-15 06:17:00,33.7,25.6,29.69,SSE,162,0.0,2.0,72,0.00,,,0.01,Wunderground v.1.15,2013-05-15 14:17:00,
2013-05-15 06:23:00,33.6,25.5,29.69,SSE,162,0.0,2.0,72,0.00,,,0.01,Wunderground v.1.15,2013-05-15 14:23:00,
2013-05-15 06:28:00,33.7,26.0,29.69,SSE,158,0.0,2.0,73,0.00,,,0.01,Wunderground v.1.15,2013-05-15 14:28:00,
2013-05-15 06:34:00,33.9,26.2,29.69,SSE,157,0.0,2.0,73,0.00,,,0.01,Wunderground v.1.15,2013-05-15 14:34:00,
2013-05-15 06:40:00,33.9,26.2,29.69,SSE,156,0.0,2.0,73,0.00,,,0.01,Wunderground v.1.15,2013-05-15 14:40:00,
2013-05-15 06:46:00,33.9,26.2,29.69,SSE,147,0.0,2.0,73,0.00,,,0.01,Wunderground v.1.15,2013-05-15 14:46:00,
2013-05-15 06:51:00,33.9,26.2,29.69,SSE,147,0.0,2.0,73,0.00,,,0.01,Wunderground v.1.15,2013-05-15 14:51:00,
2013-05-15 06:56:00,34.0,25.9,29.69,SSE,160,0.0,2.0,72,0.00,,,0.01,Wunderground v.1.15,2013-05-15 14:56:00,
2013-05-15 07:01:00,34.1,26.3,29.69,SSE,160,0.0,2.0,73,0.00,,,0.01,Wunderground v.1.15,2013-05-15 15:01:00,
2013-05-15 07:06:00,34.2,26.4,29.69,SSE,160,0.0,2.0,73,0.00,,,0.01,Wunderground v.1.15,2013-05-15 15:06:00,
2013-05-15 07:11:00,34.3,26.5,29.69,East,83,0.0,2.0,73,0.00,,,0.01,Wunderground v.1.15,2013-05-15 15:11:00,
2013-05-15 07:17:00,34.1,27.0,29.69,ENE,60,0.0,2.0,75,0.00,,,0.01,Wunderground v.1.15,2013-05-15 15:17:00,
2013-05-15 07:23:00,34.0,26.9,29.69,North,4,0.0,2.0,75,0.00,,,0.01,Wunderground v.1.15,2013-05-15 15:23:00,
2013-05-15 07:29:00,34.1,27.0,29.69,North,4,0.0,2.0,75,0.00,,,0.01,Wunderground v.1.15,2013-05-15 15:29:00,
2013-05-15 07:34:00,34.3,27.2,29.69,NNE,21,0.0,2.0,75,0.00,,,0.01,Wunderground v.1.15,2013-05-15 15:34:00,
2013-05-15 07:39:00,34.6,26.8,29.69,NNE,17,0.0,2.0,73,0.00,,,0.01,Wunderground v.1.15,2013-05-15 15:39:00,
2013-05-15 07:44:00,35.0,27.2,29.69,NNE,23,0.0,2.0,73,0.00,,,0.01,Wunderground v.1.15,2013-05-15 15:44:00,
2013-05-15 07:50:00,35.3,26.5,29.69,North,10,0.0,2.0,70,0.00,,,0.01,Wunderground v.1.15,2013-05-15 15:50:00,
2013-05-15 07:56:00,35.4,26.9,29.69,North,10,0.0,2.0,71,0.00,,,0.01,Wunderground v.1.15,2013-05-15 15:56:00,
2013-05-15 08:01:00,35.7,26.5,29.69,North,10,0.0,0.0,69,0.00,,,0.01,Wunderground v.1.15,2013-05-15 16:01:00,
2013-05-15 08:07:00,36.1,26.6,29.70,North,10,0.0,0.0,68,0.00,,,0.01,Wunderground v.1.15,2013-05-15 16:07:00,
2013-05-15 08:13:00,36.2,27.7,29.70,North,10,0.0,0.0,71,0.00,,,0.01,Wunderground v.1.15,2013-05-15 16:13:00,
2013-05-15 08:18:00,36.4,28.6,29.70,North,10,0.0,0.0,73,0.00,,,0.01,Wunderground v.1.15,2013-05-15 16:18:00,
2013-05-15 08:24:00,36.5,28.7,29.70,NE,50,0.0,2.0,73,0.00,,,0.01,Wunderground v.1.15,2013-05-15 16:24:00,
2013-05-15 08:29:00,36.4,29.2,29.70,NE,41,1.0,1.0,75,0.00,,,0.01,Wunderground v.1.15,2013-05-15 16:29:00,
2013-05-15 08:35:00,36.3,29.1,29.70,NE,53,0.0,1.0,75,0.00,,,0.01,Wunderground v.1.15,2013-05-15 16:35:00,
2013-05-15 08:40:00,36.2,29.0,29.70,NE,40,0.0,0.0,75,0.00,,,0.01,Wunderground v.1.15,2013-05-15 16:40:00,
2013-05-15 08:45:00,36.2,28.7,29.70,NE,39,0.0,0.0,74,0.00,,,0.01,Wunderground v.1.15,2013-05-15 16:45:00,
2013-05-15 08:50:00,36.4,28.6,29.70,NE,39,0.0,0.0,73,0.00,,,0.01,Wunderground v.1.15,2013-05-15 16:50:00,
2013-05-15 08:55:00,36.6,27.4,29.70,NE,38,0.0,0.0,69,0.00,,,0.01,Wunderground v.1.15,2013-05-15 16:55:00,
2013-05-15 09:00:00,37.1,28.9,29.69,NNE,18,0.0,2.0,72,0.00,,,0.01,Wunderground v.1.15,2013-05-15 17:00:00,
2013-05-15 09:05:00,37.6,27.6,29.70,NE,46,1.0,3.0,67,0.00,,,0.01,Wunderground v.1.15,2013-05-15 17:05:00,
2013-05-15 09:12:00,37.9,27.9,29.70,ENE,75,1.0,2.0,67,0.00,,,0.01,Wunderground v.1.15,2013-05-15 17:12:00,
2013-05-15 09:17:00,37.8,28.2,29.70,NE,52,1.0,3.0,68,0.00,,,0.01,Wunderground v.1.15,2013-05-15 17:17:00,
2013-05-15 09:23:00,37.8,28.9,29.70,ENE,70,2.0,3.0,70,0.00,,,0.01,Wunderground v.1.15,2013-05-15 17:23:00,
2013-05-15 09:29:00,37.9,30.0,29.70,ENE,62,2.0,3.0,73,0.00,,,0.01,Wunderground v.1.15,2013-05-15 17:29:00,
2013-05-15 09:34:00,38.4,29.8,29.70,NE,35,1.0,3.0,71,0.00,,,0.01,Wunderground v.1.15,2013-05-15 17:34:00,
2013-05-15 09:39:00,38.5,28.1,29.70,ENE,65,2.0,2.0,66,0.00,,,0.01,Wunderground v.1.15,2013-05-15 17:39:00,
2013-05-15 09:45:00,38.4,29.1,29.70,NE,45,2.0,4.0,69,0.00,,,0.01,Wunderground v.1.15,2013-05-15 17:45:00,
2013-05-15 09:51:00,38.6,30.0,29.70,ENE,65,2.0,3.0,71,0.00,,,0.01,Wunderground v.1.15,2013-05-15 17:51:00,
2013-05-15 09:56:00,38.6,29.3,29.70,ENE,66,2.0,4.0,69,0.00,,,0.01,Wunderground v.1.15,2013-05-15 17:56:00,
2013-05-15 10:02:00,38.6,27.8,29.70,ENE,72,3.0,7.0,65,0.00,,,0.01,Wunderground v.1.15,2013-05-15 18:02:00,
2013-05-15 10:07:00,39.3,28.1,29.70,ENE,73,3.0,7.0,64,0.00,,,0.01,Wunderground v.1.15,2013-05-15 18:07:00,
2013-05-15 10:12:00,39.8,28.6,29.70,ENE,70,3.0,7.0,64,0.00,,,0.01,Wunderground v.1.15,2013-05-15 18:12:00,
2013-05-15 10:17:00,40.0,24.7,29.70,ENE,58,3.0,7.0,54,0.00,,,0.01,Wunderground v.1.15,2013-05-15 18:17:00,
2013-05-15 10:23:00,39.6,23.4,29.70,ENE,71,3.0,7.0,52,0.00,,,0.01,Wunderground v.1.15,2013-05-15 18:23:00,
2013-05-15 10:28:00,39.9,23.7,29.70,ENE,64,3.0,8.0,52,0.00,,,0.01,Wunderground v.1.15,2013-05-15 18:28:00,
2013-05-15 10:33:00,39.8,22.7,29.70,ESE,103,3.0,7.0,50,0.00,,,0.01,Wunderground v.1.15,2013-05-15 18:33:00,
2013-05-15 10:38:00,40.0,23.3,29.70,East,80,4.0,8.0,51,0.00,,,0.01,Wunderground v.1.15,2013-05-15 18:38:00,
2013-05-15 10:44:00,40.2,22.5,29.71,ENE,73,5.0,7.0,49,0.00,,,0.01,Wunderground v.1.15,2013-05-15 18:44:00,
2013-05-15 10:49:00,40.6,23.9,29.70,ENE,78,4.0,4.0,51,0.00,,,0.01,Wunderground v.1.15,2013-05-15 18:49:00,
2013-05-15 10:54:00,40.9,23.7,29.70,NE,45,4.0,7.0,50,0.00,,,0.01,Wunderground v.1.15,2013-05-15 18:54:00,
2013-05-15 11:00:00,40.7,24.4,29.71,ENE,67,5.0,10.0,52,0.00,,,0.01,Wunderground v.1.15,2013-05-15 19:00:00,
2013-05-15 11:06:00,40.0,24.2,29.71,NE,38,5.0,10.0,53,0.00,,,0.01,Wunderground v.1.15,2013-05-15 19:06:00,
2013-05-15 11:12:00,40.6,24.3,29.71,ENE,76,4.0,10.0,52,0.00,,,0.01,Wunderground v.1.15,2013-05-15 19:12:00,
2013-05-15 11:17:00,40.9,23.2,29.71,ENE,76,4.0,10.0,49,0.00,,,0.01,Wunderground v.1.15,2013-05-15 19:17:00,
2013-05-15 11:23:00,40.7,23.5,29.71,East,87,4.0,10.0,50,0.00,,,0.01,Wunderground v.1.15,2013-05-15 19:23:00,
2013-05-15 11:29:00,40.6,22.9,29.71,East,99,4.0,10.0,49,0.00,,,0.01,Wunderground v.1.15,2013-05-15 19:29:00,
2013-05-15 11:34:00,40.8,23.6,29.71,NE,46,3.0,10.0,50,0.00,,,0.01,Wunderground v.1.15,2013-05-15 19:34:00,
2013-05-15 11:39:00,40.6,21.9,29.71,ESE,104,4.0,10.0,47,0.00,,,0.01,Wunderground v.1.15,2013-05-15 19:39:00,
2013-05-15 11:46:00,40.2,21.6,29.71,East,87,6.0,10.0,47,0.00,,,0.01,Wunderground v.1.15,2013-05-15 19:46:00,
2013-05-15 11:51:00,40.6,21.9,29.71,ENE,64,6.0,10.0,47,0.00,,,0.01,Wunderground v.1.15,2013-05-15 19:51:00,
2013-05-15 11:57:00,41.0,22.8,29.71,ESE,104,6.0,10.0,48,0.00,,,0.01,Wunderground v.1.15,2013-05-15 19:57:00,
2013-05-15 12:03:00,42.2,23.9,29.71,ENE,65,5.0,11.0,48,0.00,,,0.01,Wunderground v.1.15,2013-05-15 20:03:00,
2013-05-15 12:08:00,42.6,21.6,29.71,East,93,5.0,11.0,43,0.00,,,0.01,Wunderground v.1.15,2013-05-15 20:08:00,
2013-05-15 12:13:00,42.0,21.6,29.71,East,100,7.0,11.0,44,0.00,,,0.01,Wunderground v.1.15,2013-05-15 20:13:00,
2013-05-15 12:19:00,42.4,22.0,29.71,East,99,7.0,11.0,44,0.00,,,0.01,Wunderground v.1.15,2013-05-15 20:19:00,
2013-05-15 12:24:00,43.0,22.0,29.71,ENE,78,6.0,11.0,43,0.00,,,0.01,Wunderground v.1.15,2013-05-15 20:24:00,
2013-05-15 12:30:00,43.3,21.7,29.71,ENE,69,5.0,11.0,42,0.00,,,0.01,Wunderground v.1.15,2013-05-15 20:30:00,
2013-05-15 12:35:00,43.0,23.6,29.71,East,82,6.0,11.0,46,0.00,,,0.01,Wunderground v.1.15,2013-05-15 20:35:00,
2013-05-15 12:40:00,43.3,22.8,29.71,ENE,72,6.0,6.0,44,0.00,,,0.00,Wunderground v.1.15,2013-05-15 20:40:00,
2013-05-15 12:46:00,42.2,21.8,29.71,East,85,7.0,15.0,44,0.00,,,0.00,Wunderground v.1.15,2013-05-15 20:46:00,
2013-05-15 12:51:00,42.6,23.2,29.71,East,83,9.0,11.0,46,0.00,,,0.00,Wunderground v.1.15,2013-05-15 20:51:00,
2013-05-15 12:56:00,42.2,22.9,29.71,East,79,9.0,13.0,46,0.00,,,0.00,Wunderground v.1.15,2013-05-15 20:56:00,
2013-05-15 13:01:00,42.4,23.1,29.71,SE,129,8.0,14.0,46,0.00,,,0.00,Wunderground v.1.15,2013-05-15 21:01:00,
2013-05-15 13:07:00,42.3,23.0,29.72,ENE,68,6.0,14.0,46,0.00,,,0.00,Wunderground v.1.15,2013-05-15 21:07:00,
2013-05-15 13:12:00,42.0,23.2,29.72,ENE,67,7.0,10.0,47,0.00,,,0.00,Wunderground v.1.15,2013-05-15 21:12:00,
2013-05-15 13:17:00,41.3,23.1,29.72,ESE,117,8.0,14.0,48,0.00,,,0.00,Wunderground v.1.15,2013-05-15 21:17:00,
2013-05-15 13:23:00,41.9,24.1,29.72,ESE,120,7.0,14.0,49,0.00,,,0.00,Wunderground v.1.15,2013-05-15 21:23:00,
2013-05-15 13:28:00,42.8,24.9,29.72,East,92,6.0,14.0,49,0.00,,,0.00,Wunderground v.1.15,2013-05-15 21:28:00,
2013-05-15 13:34:00,42.8,23.9,29.72,ENE,62,8.0,16.0,47,0.00,,,0.00,Wunderground v.1.15,2013-05-15 21:34:00,
2013-05-15 13:39:00,42.6,25.2,29.72,ESE,110,10.0,10.0,50,0.00,,,0.00,Wunderground v.1.15,2013-05-15 21:39:00,
2013-05-15 13:44:00,42.8,24.9,29.71,ESE,120,8.0,14.0,49,0.00,,,0.00,Wunderground v.1.15,2013-05-15 21:44:00,
2013-05-15 13:50:00,42.8,25.9,29.71,NE,49,7.0,14.0,51,0.00,,,0.00,Wunderground v.1.15,2013-05-15 21:50:00,
2013-05-15 13:55:00,42.8,24.9,29.72,ENE,69,7.0,14.0,49,0.00,,,0.00,Wunderground v.1.15,2013-05-15 21:55:00,
2013-05-15 14:01:00,42.8,25.4,29.72,NE,50,8.0,13.0,50,0.00,,,0.00,Wunderground v.1.15,2013-05-15 22:01:00,
2013-05-15 14:06:00,42.7,25.3,29.72,ENE,58,8.0,13.0,50,0.00,,,0.00,Wunderground v.1.15,2013-05-15 22:06:00,
2013-05-15 14:12:00,42.4,26.0,29.72,ENE,64,7.0,13.0,52,0.00,,,0.00,Wunderground v.1.15,2013-05-15 22:12:00,
2013-05-15 14:17:00,42.3,25.4,29.72,NE,54,8.0,13.0,51,0.00,,,0.00,Wunderground v.1.15,2013-05-15 22:17:00,
2013-05-15 14:24:00,43.1,26.2,29.72,East,85,8.0,13.0,51,0.00,,,0.00,Wunderground v.1.15,2013-05-15 22:24:00,
2013-05-15 14:30:00,43.2,26.3,29.72,East,85,7.0,13.0,51,0.00,,,0.00,Wunderground v.1.15,2013-05-15 22:30:00,
2013-05-15 14:35:00,43.1,26.7,29.72,East,94,7.0,13.0,52,0.00,,,0.00,Wunderground v.1.15,2013-05-15 22:35:00,
2013-05-15 14:40:00,43.5,27.0,29.72,East,85,6.0,9.0,52,0.00,,,0.00,Wunderground v.1.15,2013-05-15 22:40:00,
2013-05-15 14:45:00,42.6,27.1,29.72,SE,132,7.0,13.0,54,0.00,,,0.00,Wunderground v.1.15,2013-05-15 22:45:00,
2013-05-15 14:50:00,41.9,27.8,29.73,East,85,7.0,13.0,57,0.00,,,0.00,Wunderground v.1.15,2013-05-15 22:50:00,
2013-05-15 14:55:00,41.9,29.0,29.72,East,79,6.0,13.0,60,0.00,,,0.00,Wunderground v.1.15,2013-05-15 22:55:00,
2013-05-15 15:00:00,41.9,28.2,29.73,East,98,8.0,15.0,58,0.00,,,0.00,Wunderground v.1.15,2013-05-15 23:00:00,
2013-05-15 15:05:00,41.3,28.0,29.73,East,97,10.0,16.0,59,0.00,,,0.00,Wunderground v.1.15,2013-05-15 23:05:00,
2013-05-15 15:10:00,41.0,29.7,29.73,ENE,68,11.0,15.0,64,0.00,,,0.00,Wunderground v.1.15,2013-05-15 23:10:00,
2013-05-15 15:15:00,41.0,30.1,29.73,East,91,10.0,15.0,65,0.00,,,0.00,Wunderground v.1.15,2013-05-15 23:15:00,
2013-05-15 15:21:00,41.0,29.7,29.73,ESE,123,11.0,15.0,64,0.00,,,0.00,Wunderground v.1.15,2013-05-15 23:21:00,
2013-05-15 15:27:00,40.6,30.1,29.73,SE,125,13.0,17.0,66,0.00,,,0.00,Wunderground v.1.15,2013-05-15 23:27:00,
2013-05-15 15:33:00,40.0,28.8,29.73,ESE,111,12.0,15.0,64,0.00,,,0.00,Wunderground v.1.15,2013-05-15 23:33:00,
2013-05-15 15:38:00,39.9,27.5,29.73,ESE,102,9.0,15.0,61,0.00,,,0.00,Wunderground v.1.15,2013-05-15 23:38:00,
2013-05-15 15:43:00,39.9,28.7,29.73,ESE,102,9.0,15.0,64,0.00,,,0.00,Wunderground v.1.15,2013-05-15 23:43:00,
2013-05-15 15:48:00,39.4,28.2,29.73,East,87,10.0,15.0,64,0.00,,,0.00,Wunderground v.1.15,2013-05-15 23:48:00,
2013-05-15 15:54:00,38.9,28.5,29.73,East,84,11.0,17.0,66,0.00,,,0.00,Wunderground v.1.15,2013-05-15 23:54:00,
2013-05-15 15:59:00,38.6,28.9,29.73,East,98,9.0,17.0,68,0.00,,,0.00,Wunderground v.1.15,2013-05-15 23:59:00,
2013-05-15 16:04:00,39.5,29.4,29.73,East,93,6.0,19.0,67,0.00,,,0.00,Wunderground v.1.15,2013-05-16 00:04:00,
2013-05-15 16:10:00,39.7,28.9,29.73,NE,56,8.0,19.0,65,0.00,,,0.00,Wunderground v.1.15,2013-05-16 00:10:00,
2013-05-15 16:16:00,39.7,29.3,29.73,East,87,9.0,19.0,66,0.00,,,0.00,Wunderground v.1.15,2013-05-16 00:16:00,
2013-05-15 16:22:00,39.9,28.3,29.73,ENE,74,7.0,19.0,63,0.00,,,0.00,Wunderground v.1.15,2013-05-16 00:22:00,
2013-05-15 16:28:00,40.1,28.5,29.73,East,100,8.0,19.0,63,0.00,,,0.00,Wunderground v.1.15,2013-05-16 00:28:00,
2013-05-15 16:35:00,40.5,29.7,29.73,East,84,7.0,19.0,65,0.00,,,0.00,Wunderground v.1.15,2013-05-16 00:35:00,
2013-05-15 16:40:00,40.3,28.7,29.73,SSE,157,7.0,19.0,63,0.00,,,0.00,Wunderground v.1.15,2013-05-16 00:40:00,
2013-05-15 16:45:00,39.8,29.0,29.73,SE,127,8.0,19.0,65,0.00,,,0.00,Wunderground v.1.15,2013-05-16 00:45:00,
2013-05-15 16:52:00,39.8,28.6,29.73,NE,44,7.0,19.0,64,0.00,,,0.00,Wunderground v.1.15,2013-05-16 00:52:00,
2013-05-15 16:58:00,40.0,28.8,29.73,ENE,70,6.0,19.0,64,0.00,,,0.00,Wunderground v.1.15,2013-05-16 00:58:00,
2013-05-15 17:03:00,40.0,28.4,29.73,NNE,19,5.0,13.0,63,0.00,,,0.00,Wunderground v.1.15,2013-05-16 01:03:00,
2013-05-15 17:09:00,40.2,28.6,29.73,NE,47,5.0,13.0,63,0.00,,,0.00,Wunderground v.1.15,2013-05-16 01:09:00,
2013-05-15 17:14:00,39.8,29.0,29.73,NNE,31,5.0,13.0,65,0.00,,,0.00,Wunderground v.1.15,2013-05-16 01:14:00,
2013-05-15 17:20:00,39.8,29.4,29.73,NE,40,2.0,13.0,66,0.00,,,0.00,Wunderground v.1.15,2013-05-16 01:20:00,
2013-05-15 17:25:00,39.8,28.2,29.73,NE,56,1.0,13.0,63,0.00,,,0.00,Wunderground v.1.15,2013-05-16 01:25:00,
2013-05-15 17:30:00,40.0,28.8,29.73,NW,305,1.0,13.0,64,0.00,,,0.00,Wunderground v.1.15,2013-05-16 01:30:00,
2013-05-15 17:36:00,40.0,28.4,29.73,SSE,157,2.0,13.0,63,0.00,,,0.00,Wunderground v.1.15,2013-05-16 01:36:00,
2013-05-15 17:42:00,39.0,29.0,29.73,SSE,152,5.0,13.0,67,0.00,,,0.00,Wunderground v.1.15,2013-05-16 01:42:00,
2013-05-15 17:48:00,39.2,28.8,29.73,ENE,75,4.0,13.0,66,0.00,,,0.00,Wunderground v.1.15,2013-05-16 01:48:00,
2013-05-15 17:54:00,39.4,29.0,29.73,NW,318,5.0,13.0,66,0.00,,,0.00,Wunderground v.1.15,2013-05-16 01:54:00,
2013-05-15 18:00:00,39.4,29.7,29.73,East,82,6.0,11.0,68,0.00,,,0.00,Wunderground v.1.15,2013-05-16 02:00:00,
2013-05-15 18:05:00,39.2,29.9,29.73,ESE,106,7.0,11.0,69,0.00,,,0.00,Wunderground v.1.15,2013-05-16 02:05:00,
2013-05-15 18:10:00,39.0,30.0,29.73,East,85,6.0,11.0,70,0.00,,,0.00,Wunderground v.1.15,2013-05-16 02:10:00,
2013-05-15 18:15:00,38.8,30.2,29.72,East,93,6.0,11.0,71,0.00,,,0.00,Wunderground v.1.15,2013-05-16 02:15:00,
2013-05-15 18:22:00,38.8,30.5,29.72,NE,41,6.0,11.0,72,0.00,,,0.00,Wunderground v.1.15,2013-05-16 02:22:00,
2013-05-15 18:28:00,38.8,30.2,29.72,ENE,76,4.0,11.0,71,0.00,,,0.00,Wunderground v.1.15,2013-05-16 02:28:00,
2013-05-15 18:33:00,39.1,30.5,29.72,NE,56,3.0,11.0,71,0.00,,,0.00,Wunderground v.1.15,2013-05-16 02:33:00,
2013-05-15 18:39:00,39.2,30.2,29.72,NE,35,3.0,11.0,70,0.00,,,0.00,Wunderground v.1.15,2013-05-16 02:39:00,
2013-05-15 18:44:00,39.3,30.3,29.72,NNE,21,2.0,11.0,70,0.00,,,0.00,Wunderground v.1.15,2013-05-16 02:44:00,
2013-05-15 18:50:00,39.5,30.5,29.72,North,354,2.0,2.0,70,0.00,,,0.00,Wunderground v.1.15,2013-05-16 02:50:00,
2013-05-15 18:55:00,39.9,30.2,29.72,ENE,72,2.0,11.0,68,0.00,,,0.00,Wunderground v.1.15,2013-05-16 02:55:00,
2013-05-15 19:01:00,39.6,29.9,29.72,ENE,60,3.0,6.0,68,0.00,,,0.00,Wunderground v.1.15,2013-05-16 03:01:00,
2013-05-15 19:06:00,39.5,29.8,29.72,ENE,68,3.0,6.0,68,0.00,,,0.00,Wunderground v.1.15,2013-05-16 03:06:00,
2013-05-15 19:11:00,39.6,29.5,29.72,NE,54,3.0,6.0,67,0.00,,,0.00,Wunderground v.1.15,2013-05-16 03:11:00,
2013-05-15 19:17:00,39.5,29.8,29.72,ENE,62,2.0,6.0,68,0.00,,,0.00,Wunderground v.1.15,2013-05-16 03:17:00,
2013-05-15 19:22:00,39.5,29.4,29.72,East,81,4.0,9.0,67,0.00,,,0.00,Wunderground v.1.15,2013-05-16 03:22:00,
2013-05-15 19:28:00,39.2,29.2,29.71,ENE,68,7.0,12.0,67,0.00,,,0.00,Wunderground v.1.15,2013-05-16 03:28:00,
2013-05-15 19:34:00,39.1,29.8,29.71,ENE,65,8.0,9.0,69,0.00,,,0.00,Wunderground v.1.15,2013-05-16 03:34:00,
2013-05-15 19:40:00,39.3,29.6,29.71,ENE,64,5.0,5.0,68,0.00,,,0.00,Wunderground v.1.15,2013-05-16 03:40:00,
2013-05-15 19:45:00,39.8,30.1,29.71,NE,42,3.0,6.0,68,0.00,,,0.00,Wunderground v.1.15,2013-05-16 03:45:00,
2013-05-15 19:50:00,40.3,29.8,29.70,NE,40,3.0,4.0,66,0.00,,,0.00,Wunderground v.1.15,2013-05-16 03:50:00,
2013-05-15 19:56:00,40.0,29.2,29.70,NE,36,4.0,8.0,65,0.00,,,0.00,Wunderground v.1.15,2013-05-16 03:56:00,
2013-05-15 20:01:00,39.8,29.4,29.70,NE,54,5.0,10.0,66,0.00,,,0.00,Wunderground v.1.15,2013-05-16 04:01:00,
2013-05-15 20:02:00,39.7,29.6,29.70,NNE,31,5.0,10.0,67,0.00,,,0.00,Wunderground v.1.15,2013-05-16 04:02:00,
2013-05-15 20:03:00,39.7,29.3,29.70,NNE,30,5.0,10.0,66,0.00,,,0.00,Wunderground v.1.15,2013-05-16 04:03:00,
2013-05-15 20:04:00,39.7,29.3,29.70,NE,45,5.0,10.0,66,0.00,,,0.00,Wunderground v.1.15,2013-05-16 04:04:00,
2013-05-15 20:10:00,39.5,29.4,29.70,North,8,5.0,10.0,67,0.00,,,0.00,Wunderground v.1.15,2013-05-16 04:10:00,
2013-05-15 20:15:00,39.2,29.5,29.70,NNE,23,5.0,10.0,68,0.00,,,0.00,Wunderground v.1.15,2013-05-16 04:15:00,
2013-05-15 20:20:00,39.0,29.7,29.70,NNE,16,4.0,10.0,69,0.00,,,0.00,Wunderground v.1.15,2013-05-16 04:20:00,
2013-05-15 20:25:00,38.8,29.5,29.70,NE,44,4.0,10.0,69,0.00,,,0.00,Wunderground v.1.15,2013-05-16 04:25:00,
2013-05-15 20:30:00,38.6,29.3,29.70,ENE,60,4.0,10.0,69,0.00,,,0.00,Wunderground v.1.15,2013-05-16 04:30:00,
2013-05-15 20:36:00,38.6,28.9,29.70,ENE,70,4.0,10.0,68,0.00,,,0.00,Wunderground v.1.15,2013-05-16 04:36:00,
2013-05-15 20:41:00,38.6,28.9,29.70,NE,54,5.0,10.0,68,0.00,,,0.00,Wunderground v.1.15,2013-05-16 04:41:00,
2013-05-15 20:46:00,38.6,29.3,29.70,ENE,64,4.0,10.0,69,0.00,,,0.00,Wunderground v.1.15,2013-05-16 04:46:00,
2013-05-15 20:51:00,38.6,28.9,29.70,ENE,70,3.0,10.0,68,0.00,,,0.00,Wunderground v.1.15,2013-05-16 04:51:00,
2013-05-15 20:56:00,38.7,29.0,29.70,ENE,66,3.0,10.0,68,0.00,,,0.00,Wunderground v.1.15,2013-05-16 04:56:00,
2013-05-15 21:01:00,38.7,28.7,29.70,NE,49,4.0,7.0,67,0.00,,,0.00,Wunderground v.1.15,2013-05-16 05:01:00,
2013-05-15 21:07:00,38.7,28.3,29.69,NE,41,4.0,8.0,66,0.00,,,0.00,Wunderground v.1.15,2013-05-16 05:07:00,
2013-05-15 21:12:00,38.6,28.2,29.69,NNE,31,4.0,7.0,66,0.00,,,0.00,Wunderground v.1.15,2013-05-16 05:12:00,
2013-05-15 21:18:00,38.5,28.1,29.69,NE,49,3.0,7.0,66,0.00,,,0.00,Wunderground v.1.15,2013-05-16 05:18:00,
2013-05-15 21:24:00,38.4,28.0,29.69,NE,52,2.0,7.0,66,0.00,,,0.00,Wunderground v.1.15,2013-05-16 05:24:00,
2013-05-15 21:29:00,38.4,28.0,29.69,NNE,29,1.0,1.0,66,0.00,,,0.00,Wunderground v.1.15,2013-05-16 05:29:00,
2013-05-15 21:35:00,38.3,27.9,29.69,NNE,14,0.0,7.0,66,0.00,,,0.00,Wunderground v.1.15,2013-05-16 05:35:00,
2013-05-15 21:40:00,38.2,28.2,29.69,NNE,18,0.0,7.0,67,0.00,,,0.00,Wunderground v.1.15,2013-05-16 05:40:00,
2013-05-15 21:46:00,38.2,28.2,29.69,NNE,21,0.0,7.0,67,0.00,,,0.00,Wunderground v.1.15,2013-05-16 05:46:00,
2013-05-15 21:52:00,38.2,28.2,29.69,North,350,0.0,7.0,67,0.00,,,0.00,Wunderground v.1.15,2013-05-16 05:52:00,
2013-05-15 21:57:00,38.2,28.2,29.69,NNE,19,0.0,7.0,67,0.00,,,0.00,Wunderground v.1.15,2013-05-16 05:57:00,
2013-05-15 22:02:00,38.2,28.2,29.69,NNW,347,0.0,2.0,67,0.00,,,0.00,Wunderground v.1.15,2013-05-16 06:02:00,
2013-05-15 22:08:00,38.2,28.2,29.69,NNE,18,1.0,5.0,67,0.00,,,0.00,Wunderground v.1.15,2013-05-16 06:08:00,
2013-05-15 22:13:00,38.3,28.3,29.69,North,359,1.0,2.0,67,0.00,,,0.00,Wunderground v.1.15,2013-05-16 06:13:00,
2013-05-15 22:18:00,38.3,28.3,29.69,NNE,15,0.0,2.0,67,0.00,,,0.00,Wunderground v.1.15,2013-05-16 06:18:00,
2013-05-15 22:24:00,38.2,28.2,29.69,North,354,0.0,2.0,67,0.00,,,0.00,Wunderground v.1.15,2013-05-16 06:24:00,
2013-05-15 22:29:00,38.3,27.9,29.69,ENE,61,1.0,1.0,66,0.00,,,0.00,Wunderground v.1.15,2013-05-16 06:29:00,
2013-05-15 22:35:00,38.4,28.0,29.69,NE,52,1.0,4.0,66,0.00,,,0.00,Wunderground v.1.15,2013-05-16 06:35:00,
2013-05-15 22:40:00,38.4,28.4,29.69,ENE,66,2.0,8.0,67,0.00,,,0.00,Wunderground v.1.15,2013-05-16 06:40:00,
2013-05-15 22:46:00,38.5,28.5,29.69,North,349,3.0,8.0,67,0.00,,,0.00,Wunderground v.1.15,2013-05-16 06:46:00,
2013-05-15 22:52:00,38.4,28.8,29.69,NE,49,2.0,2.0,68,0.00,,,0.00,Wunderground v.1.15,2013-05-16 06:52:00,
2013-05-15 22:57:00,38.3,29.0,29.69,NNW,330,1.0,2.0,69,0.00,,,0.00,Wunderground v.1.15,2013-05-16 06:57:00,
2013-05-15 23:02:00,38.2,28.9,29.69,NE,38,0.0,4.0,69,0.00,,,0.00,Wunderground v.1.15,2013-05-16 07:02:00,
2013-05-15 23:07:00,38.2,28.9,29.69,North,4,0.0,4.0,69,0.00,,,0.00,Wunderground v.1.15,2013-05-16 07:07:00,
2013-05-15 23:13:00,38.0,28.7,29.68,North,349,0.0,4.0,69,0.00,,,0.00,Wunderground v.1.15,2013-05-16 07:13:00,
2013-05-15 23:19:00,38.0,29.1,29.68,North,349,0.0,4.0,70,0.00,,,0.00,Wunderground v.1.15,2013-05-16 07:19:00,
2013-05-15 23:24:00,37.8,28.9,29.68,North,349,0.0,4.0,70,0.00,,,0.00,Wunderground v.1.15,2013-05-16 07:24:00,
2013-05-15 23:30:00,37.7,29.1,29.68,NNW,340,0.0,4.0,71,0.00,,,0.00,Wunderground v.1.15,2013-05-16 07:30:00,
2013-05-15 23:35:00,37.6,28.7,29.68,NNW,336,1.0,4.0,70,0.00,,,0.00,Wunderground v.1.15,2013-05-16 07:35:00,
2013-05-15 23:40:00,37.5,28.6,29.68,NW,321,1.0,4.0,70,0.00,,,0.00,Wunderground v.1.15,2013-05-16 07:40:00,
2013-05-15 23:46:00,37.4,28.5,29.68,NW,320,1.0,4.0,70,0.00,,,0.00,Wunderground v.1.15,2013-05-16 07:46:00,
2013-05-15 23:51:00,37.4,28.9,29.68,NW,320,0.0,4.0,71,0.00,,,0.00,Wunderground v.1.15,2013-05-16 07:51:00,
2013-05-15 23:56:00,37.5,28.9,29.67,WNW,295,1.0,4.0,71,0.00,,,0.00,Wunderground v.1.15,2013-05-16 07:56:00,